This demonstration page uses our WeatherBlox Daily Observations layout. Learn more.

Left ArrowRight Arrow

44.89941, -97.11507

Hourly Observations for June 28, 2018

Temp ( °F °C ) Dew Point ( °F °C ) Humidity (%) Winds ( mph kmh ) Pressure ( in mb ) Visibility ( mi km ) Precip ( " mm )
12:53 am 00:53 Clear 69 20.6 67 19.4 93 93 S 5 7 29.85 1011 10 16 0.00 0.00
1:53 am 01:53 Mostly Clear 70 21.1 68 20 93 93 SSE 5 7 29.84 1011 10 16 0.00 0.00
2:53 am 02:53 Clear 69 20.6 67 19.4 93 93 S 7 11 29.83 1010 10 16 0.00 0.00
3:53 am 03:53 Mostly Clear 67 19.4 67 19.4 100 100 SSE 6 9 29.82 1010 10 16 0.00 0.00
4:53 am 04:53 Clear 67 19.4 66 18.9 97 97 SSE 7 11 29.80 1009 10 16 0.00 0.00
5:53 am 05:53 Partly Cloudy 67 19.4 67 19.4 100 100 SSE 7 11 29.80 1009 8 13 0.00 0.00
6:53 am 06:53 Sunny 68 20 67 19.4 96 96 SSE 6 9 29.80 1009 9 14 0.00 0.00
7:53 am 07:53 Sunny 71 21.7 68 20 90 90 SSE 8 13 29.80 1009 10 16 0.00 0.00
8:53 am 08:53 Mostly Sunny 75 23.9 68 20 79 79 S 12 19 29.80 1009 10 16 0.00 0.00
9:53 am 09:53 Sunny 78 25.6 70 21.1 76 76 S 12 19 29.79 1009 10 16 0.00 0.00
10:53 am 10:53 Sunny 78 25.6 68 20 71 71 SSE 13 20 29.78 1008 10 16 0.00 0.00
11:40 am 11:40 Partly Cloudy with Nearby Thunderstorms 76 24.4 71 21.7 85 85 WNW 12 19 29.88 1012 10 16 0.01 0.25
11:53 am 11:53 Mostly Cloudy with Thunderstorms 75 23.9 70 21.1 84 84 WNW 8 13 29.88 1012 5 8 0.04 1.02
12:12 pm 12:12 Mostly Cloudy with Light Rain 75 23.9 72 22.2 90 90 SSE 6 9 29.83 1010 10 16 0.07 1.78
12:53 pm 12:53 Sunny 78 25.6 71 21.7 79 79 SE 12 19 29.76 1008 10 16 0.07 1.78
1:53 pm 13:53 Sunny 83 28.3 66 18.9 57 57 ESE 8 13 29.74 1007 10 16 0.00 0.00
2:53 pm 14:53 Sunny 83 28.3 69 20.6 63 63 SE 16 26 29.72 1007 10 16 0.00 0.00
3:53 pm 15:53 Sunny 84 28.9 69 20.6 61 61 SE 15 24 29.70 1006 10 16 0.00 0.00
4:53 pm 16:53 Sunny 85 29.4 69 20.6 59 59 ESE 15 24 29.68 1005 10 16 0.00 0.00
5:53 pm 17:53 Sunny 84 28.9 68 20 59 59 SSE 18 30 29.68 1005 10 16 0.00 0.00
6:53 pm 18:53 Sunny 83 28.3 72 22.2 70 70 SE 10 17 29.67 1005 10 16 0.00 0.00
7:53 pm 19:53 Sunny 82 27.8 71 21.7 69 69 SE 12 19 29.66 1005 10 16 0.00 0.00
8:53 pm 20:53 Sunny 79 26.1 72 22.2 79 79 ESE 10 17 29.65 1004 10 16 0.00 0.00
9:53 pm 21:53 Clear 76 24.4 73 22.8 91 91 ESE 10 17 29.65 1004 10 16 0.00 0.00
10:53 pm 22:53 Clear 75 23.9 73 22.8 94 94 ESE 15 24 29.63 1004 10 16 0.00 0.00
11:53 pm 23:53 Clear 74 23.3 73 22.8 97 97 SE 12 19 29.63 1003 10 16 0.00 0.00

Powered by AerisWeather